Flag for Germany Weather past 2 weeks in Beckum, North Rhine-Westphalia, Germany

45 °F


Feels Like: 39 °F
Forecast: 36 / 50 °F
Wind: 10 mph from Northeast

Location: Dortmund / Wickede

Current Time: Oct 10, 2015 at 9:57:34 PM

Latest Report: Oct 10, 2015 at 9:20 PM

Visibility: 10 mi

Pressure: 30.09 "Hg

Humidity: 76%

Dew point: 37 °F

Location of BeckumLocation

Historic Weather in Beckum — Graph


Beckum temperature yesterday

Maximum temperature yesterday: 55 °F (at 12:20 PM)
Minimum temperature yesterday: 52 °F (at 5:20 AM)
Average temperature yesterday: 54 °F

Past Weeks' High & Low Weather Summary

High68 °F (Oct 3, 2:50 PM)94% (Sep 26, 5:20 AM)30.66 "Hg (Sep 26, 5:20 AM)
Low36 °F (Oct 2, 6:20 AM)39% (Sep 30, 4:20 PM)29.59 "Hg (Oct 6, 6:20 AM)
Average54 °F73%30.20 "Hg
* Reported Sep 25 8:20 PM — Oct 10 8:20 PM, Beckum, Weather by CustomWeather, © 2015

Note: Actual official high and low records may vary slightly from our data, if they occured in-between our weather recording intervals... More about our weather records


Beckum weather history for previous 24 hours

Time TempWeatherWind HumidityBarometerVisibility
8:20 PM
Sat, Oct 10
46 °FClear.9 mph71%30.09 "Hg10 mi
7:50 PM48 °FClear.9 mph71%30.09 "Hg10 mi
7:20 PM48 °FSunny.9 mph71%30.09 "Hg10 mi
6:50 PM50 °FSunny.9 mph67%30.07 "Hg10 mi
6:20 PM52 °FSunny.10 mph62%30.07 "Hg10 mi
5:50 PM54 °FSunny.10 mph58%30.09 "Hg10 mi
5:20 PM54 °FSunny.13 mph58%30.09 "Hg10 mi
4:50 PM54 °FSunny.12 mph63%30.09 "Hg10 mi
4:20 PM54 °FPassing clouds.12 mph67%30.09 "HgN/A
3:50 PM54 °FScattered clouds.12 mph67%30.09 "HgN/A
3:20 PM54 °FScattered clouds.12 mph72%30.09 "HgN/A
2:50 PM54 °FPassing clouds.12 mph67%30.09 "HgN/A
2:20 PM54 °FSunny.12 mph63%30.09 "Hg10 mi
1:50 PM54 °FSunny.12 mph67%30.12 "Hg10 mi
1:20 PM54 °FPassing clouds.10 mph72%30.12 "Hg6 mi
12:50 PM52 °FScattered clouds.12 mph72%30.12 "Hg4 mi
12:20 PM52 °FPartly sunny.9 mph82%30.12 "Hg4 mi
11:50 AM50 °FPartly sunny.8 mph82%30.12 "Hg4 mi
11:20 AM50 °FFog.12 mph82%30.15 "Hg2 mi
10:50 AM50 °FFog.8 mph82%30.15 "Hg3 mi
10:20 AM48 °FFog.8 mph87%30.15 "Hg3 mi
9:50 AM48 °FFog.7 mph87%30.15 "Hg2 mi
9:20 AM48 °FFog.9 mph87%30.15 "Hg2 mi
8:50 AM48 °FLow clouds.8 mph87%30.15 "Hg4 mi
8:20 AM48 °FFog.7 mph87%30.15 "Hg3 mi
7:50 AM48 °FLow clouds.7 mph87%30.15 "Hg4 mi
7:20 AM48 °FLow clouds.10 mph87%30.15 "Hg4 mi
6:50 AM50 °FFog.8 mph88%30.15 "Hg2 mi
6:20 AM50 °FFog.8 mph88%30.15 "Hg3 mi
5:50 AM50 °FLow clouds.8 mph88%30.15 "Hg4 mi
5:20 AM50 °FFog.8 mph88%30.15 "Hg2 mi
10:50 PM
Fri, Oct 9
54 °FPassing clouds.7 mph88%30.18 "Hg4 mi
10:20 PM54 °FPassing clouds.6 mph94%30.18 "Hg4 mi
9:50 PM54 °FFog.3 mph94%30.18 "Hg3 mi
9:20 PM54 °FLight rain. Passing clouds.5 mph94%30.15 "Hg4 mi
Weather by CustomWeather, © 2015

See weather overviewHow to use our weather pages